sat.trackr.live / text

‹ back to catalog

2025-180D

NORAD 65262 · 2025-180D

PAYLOAD ACTIVE UNKNOWN

§ Identity

Operator
Country
TBD
Launch date
2025-08-19
Launch site
JSC
Launch vehicle
Mass (kg)
RCS (m²)

External: N2YO · Heavens-Above · Gunter

§ Orbital elements

Epoch: 2026-05-14T20:23:18.400992Z

Period
95.04 min
Inclination
97.5213°
Eccentricity
0.0015573
Mean motion
15.15141877 rev/d
Perigee alt
509.8 km
Apogee alt
531.3 km
Semi-major
6,898.7 km
B*
1.3643e-4
RAAN
262.3824°
Arg perigee
78.2651°
Mean anomaly
282.0838°
Rev number
4,061

§ Raw data

2025-180D1 65262U 25180D   26134.84951853  .00002562  00000+0  13643-3 0  99902 65262  97.5213 262.3824 0015573  78.2651 282.0838 15.15141877 40619

JSON: /api/v1/satellites/65262 · /tle

For live sub-satellite position, see the globe view (requires WebGL).

§ Visibility from observer

Set your observer location to see the next 7 days of passes ≥ 10°. The values pass through the URL so the page stays shareable.

No JS? Fill the form by hand. The geolocation button needs JavaScript.

§ Radio — SatNOGS DB

ModeDescriptionDownlinkUplink
FM S-band telemetry 2.288 GHz

1 transmitter · refreshed weekly from db.satnogs.org